Home   Weather   Achern   Past weeks

Flag for Germany Past Weather in Achern, Baden-Württemberg, Germany — Yesterday and Last 2 Weeks

Now
57 °F

Scattered clouds.


Feels Like: 57 °F
Forecast: 50 / 69 °F
Wind: 2 mph from North

Location: Karlsruhe - Baden Wurttemberg

Current Time: Sep 26, 2016 at 9:17:39 AM

Latest Report: Sep 26, 2016 at 8:50 AM


Visibility: N/A

Pressure: 30.21 "Hg

Humidity: 100%

Dew Point: 57 °F

Location of AchernLocation

Past Weather in Achern — Graph

°F

Achern Temperature Yesterday

Maximum temperature yesterday: 79 °F (at 5:20 PM)
Minimum temperature yesterday: 43 °F (at 6:20 AM)
Average temperature yesterday: 63 °F

High & Low Weather Summary for the Past Weeks

 TemperatureHumidityPressure
High88 °F (Sep 12, 4:50 PM)100% (Sep 11, 7:20 AM)30.30 "Hg (Sep 11, 7:20 AM)
Low39 °F (Sep 22, 7:50 AM)31% (Sep 14, 4:50 PM)29.77 "Hg (Sep 15, 4:50 AM)
Average64 °F77%30.04 "Hg
* Reported Sep 11 7:20 AM — Sep 26 7:50 AM, Achern, Weather by CustomWeather, © 2016

Note: Actual official high and low records may vary slightly from our data, if they occured in-between our weather recording intervals... More about our weather records

Advertising

Achern Weather History for the Previous 24 Hours

Scroll right to see more
 ConditionsComfort  
Time TempWeatherWind HumidityBarometerVisibility
7:50 AM
Mon, Sep 26
57 °FScattered clouds.1 mph94%30.18 "HgN/A
7:20 AM55 °FScattered clouds.5 mph100%30.18 "HgN/A
6:50 AM55 °FClear.2 mph94%30.18 "Hg10 mi
6:20 AM57 °FPassing clouds.5 mph94%30.18 "HgN/A
5:50 AM57 °FPassing clouds.3 mph94%30.18 "HgN/A
5:20 AM57 °FClear.3 mph94%30.18 "Hg10 mi
4:50 AM57 °FClear.5 mph94%30.18 "Hg10 mi
4:20 AM57 °FClear.3 mph94%30.15 "Hg10 mi
2:50 AM61 °FPassing clouds.6 mph88%30.18 "HgN/A
11:20 PM
Sun, Sep 25
63 °FLight rain. Clear.3 mph83%30.12 "Hg6 mi
10:50 PM64 °FClear.5 mph78%30.12 "Hg6 mi
10:20 PM63 °FClear.2 mph88%30.12 "Hg10 mi
9:50 PM63 °FClear.2 mph83%30.12 "Hg10 mi
9:20 PM61 °FClear.2 mph88%30.09 "Hg10 mi
8:50 PM61 °FClear.No wind94%30.09 "Hg10 mi
8:20 PM63 °FClear.No wind88%30.09 "Hg10 mi
7:50 PM64 °FClear.1 mph83%30.09 "Hg10 mi
7:20 PM68 °FClear.1 mph73%30.07 "Hg10 mi
6:50 PM72 °FSunny.1 mph69%30.07 "Hg10 mi
6:20 PM77 °FSunny.2 mph44%30.07 "Hg10 mi
5:50 PM77 °FSunny.5 mph42%30.07 "Hg10 mi
5:20 PM79 °FSunny.6 mph39%30.07 "Hg10 mi
4:50 PM77 °FSunny.2 mph44%30.07 "Hg10 mi
4:20 PM77 °FSunny.1 mph44%30.07 "Hg10 mi
3:50 PM77 °FPassing clouds.5 mph44%30.07 "HgN/A
3:20 PM77 °FPassing clouds.5 mph42%30.07 "HgN/A
2:50 PM77 °FPassing clouds.6 mph44%30.09 "HgN/A
2:20 PM77 °FPassing clouds.7 mph44%30.09 "HgN/A
1:50 PM75 °FPassing clouds.6 mph50%30.09 "HgN/A
1:20 PM73 °FPassing clouds.7 mph53%30.09 "HgN/A
12:50 PM72 °FSunny.3 mph61%30.12 "Hg10 mi
12:20 PM70 °FSunny.3 mph64%30.12 "Hg10 mi
11:50 AM66 °FSunny.3 mph73%30.12 "Hg10 mi
11:20 AM64 °FPassing clouds.6 mph73%30.12 "HgN/A
10:50 AM63 °FSunny.2 mph77%30.12 "Hg10 mi
10:20 AM59 °FClear.2 mph100%30.15 "Hg6 mi
9:50 AM55 °FClear.1 mph100%30.15 "Hg6 mi
9:20 AM54 °FLight fog.No wind100%30.15 "Hg4 mi
Weather by CustomWeather, © 2016

See weather overviewHow to use our weather pages